Location: Mountain Grove
(34.0887°N, 86.6172°W)
Time: 21:22:06
(UTC+00:00)

deb Chang Zheng 4 - Pass Details

Date: 14 July 2020
Orbit: 603 x 626 km, 98.6° (Epoch: 08 August)

Event Time Altitude Azimuth Distance (km) Brightness Sun altitude
Rises 09:53:07 0° 11° (N) 2,869 7.7 -10.2°
Reaches altitude 10° 09:55:17 10° 9° (N) 1,964 6.8 -9.8°
Maximum altitude 09:59:33 77° 285° (WNW) 631 3.5 -9.1°
Drops below altitude 10° 10:03:49 10° 199° (SSW) 1,965 5.7 -8.4°
Enters shadow 10:05:10 - 198° (SSW) 2,527 6.2 -8.1°
